N48MQ KBHM-KOLV

Flight info

Callsign N48MQ
Flight time 1h 21m
Altitude 8500
Route KBHM KOLV
Aircraft M20P/L-VGDW/C

Departure

Time 2026-04-26 16:29
Airport Birmingham-Shuttlesworth International Airport (KBHM)

Arrival

Time 2026-04-26 17:50
Airport Olive Branch Airport (KOLV)
Time Latitude Longitude Altitude Speed Heading
2026-04-26 16:20 33.56814 -86.74161 635 ft 0 kts 81°
2026-04-26 16:25 33.56815 -86.74156 635 ft 3 kts 63°
2026-04-26 16:25 33.56856 -86.74095 636 ft 13 kts 31°
2026-04-26 16:25 33.56941 -86.74109 636 ft 11 kts 289°
2026-04-26 16:26 33.56976 -86.74184 635 ft 11 kts 23°
2026-04-26 16:26 33.57011 -86.74145 636 ft 11 kts 49°
2026-04-26 16:26 33.57120 -86.73956 640 ft 32 kts 56°
2026-04-26 16:26 33.57247 -86.73846 645 ft 17 kts 327°
2026-04-26 16:27 33.57279 -86.73869 644 ft 0 kts 329°
2026-04-26 16:28 33.57320 -86.73926 643 ft 19 kts 278°
2026-04-26 16:28 33.57166 -86.74230 637 ft 75 kts 234°
2026-04-26 16:28 33.56787 -86.74899 673 ft 111 kts 236°
2026-04-26 16:29 33.56385 -86.75633 1033 ft 103 kts 237°
2026-04-26 16:29 33.55962 -86.76338 1371 ft 105 kts 234°
2026-04-26 16:29 33.55537 -86.77062 1718 ft 106 kts 248°
2026-04-26 16:29 33.55533 -86.77947 1965 ft 113 kts 299°
2026-04-26 16:30 33.55964 -86.78648 2427 ft 101 kts 310°
2026-04-26 16:30 33.56410 -86.79343 2719 ft 106 kts 308°
2026-04-26 16:30 33.56847 -86.80009 3085 ft 103 kts 312°
2026-04-26 16:30 33.57313 -86.80666 3416 ft 102 kts 312°
2026-04-26 16:31 33.57777 -86.81300 3738 ft 103 kts 313°
2026-04-26 16:31 33.58253 -86.81934 4081 ft 101 kts 313°
2026-04-26 16:31 33.58714 -86.82555 4374 ft 103 kts 315°
2026-04-26 16:31 33.59200 -86.83164 4725 ft 101 kts 312°
2026-04-26 16:32 33.59611 -86.83834 5068 ft 101 kts 306°
2026-04-26 16:32 33.59868 -86.84310 5301 ft 101 kts 305°
2026-04-26 16:32 33.60375 -86.85239 5751 ft 100 kts 306°
2026-04-26 16:32 33.60760 -86.85925 6089 ft 99 kts 306°
2026-04-26 16:33 33.61163 -86.86605 6392 ft 101 kts 313°
2026-04-26 16:33 33.61724 -86.87080 6693 ft 102 kts 330°
2026-04-26 16:33 33.62320 -86.87548 7000 ft 102 kts 319°
2026-04-26 16:33 33.62818 -86.88146 7302 ft 102 kts 311°
2026-04-26 16:34 33.63265 -86.88812 7605 ft 102 kts 307°
2026-04-26 16:34 33.63677 -86.89501 7906 ft 102 kts 305°
2026-04-26 16:34 33.64071 -86.90205 8206 ft 101 kts 304°
2026-04-26 16:34 33.64457 -86.90920 8473 ft 103 kts 303°
2026-04-26 16:35 33.64875 -86.91710 8519 ft 121 kts 303°
2026-04-26 16:35 33.65348 -86.92611 8513 ft 130 kts 303°
2026-04-26 16:35 33.65837 -86.93553 8509 ft 133 kts 302°
2026-04-26 16:35 33.66331 -86.94511 8507 ft 136 kts 302°
2026-04-26 16:36 33.66828 -86.95478 8506 ft 137 kts 302°
2026-04-26 16:36 33.67332 -86.96458 8504 ft 138 kts 302°
2026-04-26 16:36 33.67842 -86.97450 8504 ft 139 kts 302°
2026-04-26 16:36 33.68350 -86.98440 8503 ft 139 kts 302°
2026-04-26 16:37 33.68862 -86.99436 8502 ft 139 kts 303°
2026-04-26 16:37 33.69372 -87.00429 8501 ft 140 kts 303°
2026-04-26 16:37 33.69886 -87.01432 8500 ft 140 kts 303°
2026-04-26 16:37 33.70226 -87.02093 8499 ft 140 kts 303°
2026-04-26 16:38 33.70905 -87.03416 8498 ft 140 kts 303°
2026-04-26 16:38 33.71418 -87.04418 8497 ft 140 kts 303°
2026-04-26 16:38 33.71930 -87.05417 8497 ft 140 kts 303°
2026-04-26 16:38 33.72436 -87.06404 8496 ft 140 kts 303°
2026-04-26 16:39 33.72950 -87.07407 8495 ft 140 kts 303°
2026-04-26 16:39 33.73463 -87.08408 8494 ft 140 kts 303°
2026-04-26 16:39 33.73970 -87.09399 8493 ft 140 kts 303°
2026-04-26 16:39 33.74485 -87.10403 8492 ft 140 kts 303°
2026-04-26 16:40 33.74995 -87.11401 8491 ft 140 kts 303°
2026-04-26 16:40 33.75524 -87.12434 8490 ft 140 kts 303°
2026-04-26 16:40 33.76046 -87.13454 8489 ft 140 kts 303°
2026-04-26 16:40 33.76571 -87.14481 8489 ft 140 kts 303°
2026-04-26 16:41 33.77091 -87.15498 8489 ft 141 kts 303°
2026-04-26 16:41 33.77617 -87.16528 8489 ft 141 kts 303°
2026-04-26 16:41 33.78155 -87.17580 8489 ft 142 kts 303°
2026-04-26 16:41 33.78692 -87.18632 8489 ft 142 kts 303°
2026-04-26 16:42 33.79221 -87.19666 8489 ft 142 kts 303°
2026-04-26 16:42 33.79735 -87.20673 8489 ft 142 kts 303°
2026-04-26 16:42 33.80254 -87.21691 8489 ft 142 kts 303°
2026-04-26 16:42 33.80769 -87.22701 8488 ft 142 kts 303°
2026-04-26 16:43 33.81291 -87.23724 8488 ft 142 kts 303°
2026-04-26 16:43 33.81809 -87.24739 8488 ft 142 kts 303°
2026-04-26 16:43 33.82321 -87.25742 8488 ft 142 kts 303°
2026-04-26 16:43 33.82843 -87.26765 8488 ft 142 kts 303°
2026-04-26 16:44 33.83356 -87.27771 8488 ft 142 kts 303°
2026-04-26 16:44 33.83880 -87.28798 8488 ft 142 kts 303°
2026-04-26 16:44 33.84393 -87.29806 8488 ft 142 kts 303°
2026-04-26 16:44 33.84914 -87.30830 8488 ft 142 kts 303°
2026-04-26 16:45 33.85434 -87.31850 8488 ft 142 kts 303°
2026-04-26 16:45 33.85955 -87.32873 8488 ft 142 kts 303°
2026-04-26 16:45 33.86473 -87.33893 8488 ft 142 kts 303°
2026-04-26 16:45 33.86987 -87.34905 8488 ft 142 kts 303°
2026-04-26 16:46 33.87506 -87.35924 8488 ft 142 kts 303°
2026-04-26 16:46 33.88029 -87.36951 8488 ft 142 kts 303°
2026-04-26 16:46 33.88548 -87.37973 8488 ft 142 kts 303°
2026-04-26 16:46 33.89073 -87.39005 8488 ft 142 kts 303°
2026-04-26 16:47 33.89585 -87.40015 8487 ft 142 kts 303°
2026-04-26 16:47 33.90109 -87.41045 8487 ft 142 kts 303°
2026-04-26 16:47 33.90622 -87.42057 8487 ft 142 kts 303°
2026-04-26 16:47 33.91141 -87.43079 8487 ft 142 kts 303°
2026-04-26 16:48 33.91657 -87.44096 8487 ft 142 kts 303°
2026-04-26 16:48 33.92181 -87.45129 8487 ft 142 kts 303°
2026-04-26 16:48 33.92699 -87.46151 8487 ft 142 kts 303°
2026-04-26 16:48 33.93221 -87.47179 8487 ft 142 kts 303°
2026-04-26 16:49 33.93737 -87.48199 8487 ft 142 kts 303°
2026-04-26 16:49 33.94252 -87.49214 8487 ft 142 kts 303°
2026-04-26 16:49 33.94772 -87.50242 8487 ft 142 kts 303°
2026-04-26 16:49 33.95291 -87.51266 8487 ft 142 kts 303°
2026-04-26 16:50 33.95809 -87.52289 8487 ft 142 kts 303°
2026-04-26 16:50 33.96328 -87.53316 8487 ft 142 kts 303°
2026-04-26 16:50 33.96844 -87.54335 8487 ft 142 kts 303°
2026-04-26 16:50 33.97364 -87.55363 8487 ft 142 kts 303°
2026-04-26 16:51 33.97881 -87.56387 8487 ft 142 kts 303°
2026-04-26 16:51 33.98396 -87.57406 8487 ft 142 kts 303°
2026-04-26 16:51 33.98911 -87.58425 8487 ft 142 kts 303°
2026-04-26 16:51 33.99429 -87.59451 8486 ft 142 kts 303°
2026-04-26 16:52 33.99945 -87.60474 8486 ft 142 kts 303°
2026-04-26 16:52 34.00114 -87.60808 8486 ft 142 kts 303°
2026-04-26 16:52 34.00980 -87.62524 8486 ft 142 kts 303°
2026-04-26 16:52 34.01495 -87.63544 8486 ft 142 kts 303°
2026-04-26 16:53 34.02007 -87.64559 8486 ft 142 kts 303°
2026-04-26 16:53 34.02526 -87.65589 8489 ft 142 kts 303°
2026-04-26 16:53 34.03043 -87.66615 8490 ft 142 kts 303°
2026-04-26 16:53 34.03555 -87.67629 8490 ft 142 kts 303°
2026-04-26 16:54 34.04072 -87.68655 8489 ft 142 kts 303°
2026-04-26 16:54 34.04592 -87.69690 8489 ft 143 kts 303°
2026-04-26 16:54 34.05111 -87.70719 8489 ft 143 kts 303°
2026-04-26 16:54 34.05626 -87.71742 8489 ft 143 kts 303°
2026-04-26 16:55 34.06147 -87.72779 8489 ft 143 kts 303°
2026-04-26 16:55 34.06663 -87.73804 8489 ft 143 kts 303°
2026-04-26 16:55 34.07184 -87.74839 8489 ft 143 kts 303°
2026-04-26 16:55 34.07700 -87.75865 8489 ft 143 kts 303°
2026-04-26 16:56 34.08735 -87.77926 8489 ft 143 kts 303°
2026-04-26 16:56 34.09257 -87.78965 8488 ft 143 kts 303°
2026-04-26 16:56 34.09775 -87.79997 8488 ft 143 kts 303°
2026-04-26 16:57 34.10290 -87.81023 8491 ft 143 kts 303°
2026-04-26 16:57 34.10805 -87.82049 8491 ft 143 kts 303°
2026-04-26 16:57 34.11841 -87.84113 8490 ft 143 kts 303°
2026-04-26 16:58 34.12354 -87.85134 8489 ft 143 kts 303°
2026-04-26 16:58 34.12530 -87.85483 8488 ft 144 kts 303°
2026-04-26 16:58 34.13911 -87.88229 8483 ft 144 kts 303°
2026-04-26 16:59 34.14434 -87.89271 8481 ft 144 kts 303°
2026-04-26 16:59 34.15471 -87.91341 8478 ft 144 kts 303°
2026-04-26 17:00 34.16509 -87.93414 8476 ft 144 kts 303°
2026-04-26 17:00 34.17541 -87.95478 8474 ft 144 kts 303°
2026-04-26 17:00 34.18060 -87.96516 8474 ft 143 kts 303°
2026-04-26 17:01 34.18579 -87.97554 8473 ft 143 kts 304°
2026-04-26 17:01 34.19097 -87.98592 8473 ft 143 kts 304°
2026-04-26 17:01 34.19613 -87.99625 8473 ft 143 kts 304°
2026-04-26 17:01 34.20126 -88.00652 8474 ft 143 kts 304°
2026-04-26 17:02 34.20641 -88.01684 8474 ft 143 kts 304°
2026-04-26 17:02 34.21160 -88.02726 8475 ft 143 kts 304°
2026-04-26 17:02 34.21676 -88.03759 8476 ft 143 kts 304°
2026-04-26 17:02 34.22190 -88.04790 8477 ft 143 kts 305°
2026-04-26 17:03 34.22698 -88.05809 8478 ft 143 kts 305°
2026-04-26 17:03 34.23219 -88.06853 8479 ft 143 kts 305°
2026-04-26 17:03 34.23727 -88.07874 8480 ft 143 kts 305°
2026-04-26 17:03 34.24240 -88.08905 8482 ft 143 kts 305°
2026-04-26 17:04 34.24755 -88.09939 8482 ft 143 kts 305°
2026-04-26 17:04 34.25269 -88.10970 8482 ft 143 kts 305°
2026-04-26 17:04 34.25788 -88.12013 8482 ft 143 kts 305°
2026-04-26 17:04 34.26302 -88.13045 8482 ft 143 kts 305°
2026-04-26 17:05 34.26814 -88.14075 8482 ft 143 kts 305°
2026-04-26 17:05 34.27327 -88.15106 8482 ft 143 kts 305°
2026-04-26 17:05 34.27846 -88.16151 8482 ft 143 kts 305°
2026-04-26 17:05 34.28357 -88.17180 8482 ft 143 kts 305°
2026-04-26 17:06 34.28878 -88.18227 8482 ft 143 kts 305°
2026-04-26 17:06 34.29393 -88.19266 8482 ft 143 kts 305°
2026-04-26 17:06 34.29913 -88.20311 8482 ft 143 kts 305°
2026-04-26 17:06 34.30427 -88.21347 8482 ft 143 kts 305°
2026-04-26 17:07 34.30942 -88.22385 8482 ft 143 kts 305°
2026-04-26 17:07 34.31461 -88.23433 8482 ft 143 kts 305°
2026-04-26 17:07 34.31974 -88.24467 8481 ft 143 kts 305°
2026-04-26 17:07 34.32489 -88.25504 8482 ft 143 kts 305°
2026-04-26 17:08 34.33006 -88.26549 8481 ft 143 kts 305°
2026-04-26 17:08 34.33523 -88.27593 8482 ft 144 kts 305°
2026-04-26 17:08 34.34042 -88.28638 8482 ft 144 kts 305°
2026-04-26 17:08 34.34558 -88.29681 8481 ft 144 kts 305°
2026-04-26 17:09 34.35076 -88.30727 8481 ft 144 kts 305°
2026-04-26 17:09 34.35248 -88.31075 8481 ft 145 kts 305°
2026-04-26 17:09 34.36117 -88.32831 8481 ft 145 kts 306°
2026-04-26 17:09 34.36636 -88.33878 8481 ft 145 kts 306°
2026-04-26 17:10 34.37161 -88.34937 8481 ft 145 kts 306°
2026-04-26 17:10 34.37688 -88.36003 8481 ft 145 kts 306°
2026-04-26 17:10 34.38215 -88.37067 8481 ft 145 kts 306°
2026-04-26 17:10 34.38742 -88.38135 8481 ft 145 kts 306°
2026-04-26 17:11 34.39259 -88.39181 8481 ft 145 kts 305°
2026-04-26 17:11 34.39784 -88.40245 8481 ft 145 kts 305°
2026-04-26 17:11 34.40305 -88.41300 8481 ft 145 kts 306°
2026-04-26 17:11 34.40834 -88.42371 8480 ft 145 kts 305°
2026-04-26 17:12 34.41875 -88.44482 8480 ft 145 kts 305°
2026-04-26 17:12 34.42389 -88.45524 8479 ft 145 kts 305°
2026-04-26 17:13 34.43429 -88.47635 8479 ft 145 kts 305°
2026-04-26 17:13 34.43951 -88.48696 8478 ft 145 kts 305°
2026-04-26 17:13 34.44992 -88.50811 8471 ft 145 kts 305°
2026-04-26 17:14 34.45517 -88.51876 8471 ft 145 kts 305°
2026-04-26 17:14 34.46555 -88.53984 8471 ft 145 kts 304°
2026-04-26 17:14 34.47073 -88.55039 8471 ft 145 kts 304°
2026-04-26 17:15 34.48108 -88.57143 8471 ft 144 kts 304°
2026-04-26 17:15 34.48633 -88.58212 8470 ft 144 kts 304°
2026-04-26 17:15 34.49154 -88.59272 8471 ft 144 kts 304°
2026-04-26 17:16 34.49670 -88.60323 8470 ft 144 kts 304°
2026-04-26 17:16 34.50186 -88.61376 8470 ft 144 kts 304°
2026-04-26 17:16 34.50703 -88.62431 8470 ft 144 kts 304°
2026-04-26 17:16 34.51218 -88.63483 8470 ft 144 kts 304°
2026-04-26 17:17 34.51738 -88.64542 8470 ft 144 kts 304°
2026-04-26 17:17 34.52258 -88.65605 8472 ft 144 kts 304°
2026-04-26 17:17 34.52769 -88.66648 8473 ft 145 kts 304°
2026-04-26 17:17 34.53285 -88.67701 8473 ft 145 kts 304°
2026-04-26 17:18 34.53803 -88.68759 8473 ft 145 kts 304°
2026-04-26 17:18 34.54322 -88.69820 8473 ft 145 kts 304°
2026-04-26 17:18 34.54846 -88.70889 8472 ft 145 kts 304°
2026-04-26 17:18 34.55363 -88.71947 8472 ft 145 kts 304°
2026-04-26 17:19 34.56400 -88.74066 8472 ft 145 kts 304°
2026-04-26 17:19 34.56915 -88.75120 8472 ft 145 kts 304°
2026-04-26 17:19 34.57436 -88.76185 8472 ft 145 kts 304°
2026-04-26 17:20 34.57959 -88.77256 8472 ft 145 kts 304°
2026-04-26 17:20 34.58126 -88.77598 8472 ft 145 kts 305°
2026-04-26 17:20 34.58991 -88.79368 8472 ft 145 kts 305°
2026-04-26 17:20 34.59515 -88.80441 8472 ft 145 kts 305°
2026-04-26 17:21 34.60032 -88.81503 8472 ft 145 kts 304°
2026-04-26 17:21 34.60546 -88.82555 8472 ft 145 kts 304°
2026-04-26 17:21 34.61067 -88.83624 8472 ft 145 kts 304°
2026-04-26 17:21 34.61583 -88.84680 8472 ft 145 kts 304°
2026-04-26 17:22 34.62099 -88.85739 8471 ft 144 kts 304°
2026-04-26 17:22 34.62607 -88.86781 8471 ft 144 kts 304°
2026-04-26 17:22 34.63119 -88.87831 8472 ft 144 kts 304°
2026-04-26 17:22 34.63632 -88.88886 8472 ft 144 kts 304°
2026-04-26 17:23 34.64151 -88.89949 8472 ft 144 kts 304°
2026-04-26 17:23 34.64666 -88.91009 8472 ft 144 kts 304°
2026-04-26 17:23 34.65177 -88.92058 8472 ft 144 kts 303°
2026-04-26 17:23 34.65692 -88.93117 8471 ft 144 kts 303°
2026-04-26 17:24 34.66203 -88.94169 8471 ft 144 kts 303°
2026-04-26 17:24 34.66715 -88.95222 8471 ft 144 kts 303°
2026-04-26 17:24 34.67226 -88.96274 8471 ft 144 kts 303°
2026-04-26 17:24 34.67738 -88.97327 8471 ft 144 kts 303°
2026-04-26 17:25 34.68253 -88.98386 8471 ft 144 kts 303°
2026-04-26 17:25 34.68764 -88.99441 8471 ft 144 kts 303°
2026-04-26 17:25 34.69272 -89.00487 8471 ft 144 kts 303°
2026-04-26 17:25 34.69786 -89.01547 8471 ft 144 kts 303°
2026-04-26 17:26 34.70298 -89.02602 8471 ft 144 kts 303°
2026-04-26 17:26 34.70813 -89.03664 8471 ft 144 kts 302°
2026-04-26 17:26 34.71325 -89.04720 8471 ft 144 kts 302°
2026-04-26 17:26 34.71837 -89.05776 8471 ft 144 kts 302°
2026-04-26 17:27 34.72350 -89.06836 8471 ft 144 kts 302°
2026-04-26 17:27 34.72858 -89.07886 8471 ft 144 kts 302°
2026-04-26 17:27 34.73364 -89.08931 8471 ft 144 kts 302°
2026-04-26 17:27 34.73876 -89.09988 8470 ft 144 kts 302°
2026-04-26 17:28 34.74390 -89.11051 8470 ft 144 kts 302°
2026-04-26 17:28 34.74895 -89.12095 8470 ft 144 kts 302°
2026-04-26 17:28 34.75406 -89.13151 8469 ft 144 kts 302°
2026-04-26 17:28 34.75915 -89.14204 8469 ft 144 kts 302°
2026-04-26 17:29 34.76425 -89.15260 8468 ft 144 kts 302°
2026-04-26 17:29 34.76588 -89.15597 8468 ft 144 kts 302°
2026-04-26 17:29 34.77445 -89.17370 8467 ft 144 kts 302°
2026-04-26 17:29 34.77947 -89.18410 8467 ft 144 kts 302°
2026-04-26 17:30 34.78458 -89.19469 8466 ft 144 kts 302°
2026-04-26 17:30 34.78951 -89.20496 8342 ft 131 kts 302°
2026-04-26 17:30 34.79379 -89.21392 8169 ft 114 kts 303°
2026-04-26 17:30 34.79763 -89.22196 8004 ft 106 kts 303°
2026-04-26 17:31 34.80132 -89.22965 7843 ft 102 kts 303°
2026-04-26 17:31 34.80484 -89.23698 7686 ft 99 kts 303°
2026-04-26 17:31 34.80833 -89.24425 7529 ft 98 kts 303°
2026-04-26 17:31 34.81179 -89.25146 7374 ft 98 kts 304°
2026-04-26 17:32 34.81524 -89.25865 7220 ft 97 kts 304°
2026-04-26 17:32 34.81865 -89.26575 7064 ft 97 kts 304°
2026-04-26 17:32 34.82207 -89.27286 6911 ft 96 kts 303°
2026-04-26 17:32 34.82552 -89.28000 6748 ft 97 kts 304°
2026-04-26 17:33 34.82890 -89.28704 6591 ft 97 kts 305°
2026-04-26 17:33 34.83237 -89.29424 6434 ft 98 kts 305°
2026-04-26 17:33 34.83590 -89.30157 6277 ft 100 kts 305°
2026-04-26 17:34 34.84298 -89.31628 5976 ft 101 kts 306°
2026-04-26 17:34 34.84657 -89.32376 5819 ft 102 kts 306°
2026-04-26 17:34 34.85017 -89.33125 5669 ft 103 kts 306°
2026-04-26 17:34 34.85384 -89.33888 5512 ft 104 kts 306°
2026-04-26 17:35 34.85753 -89.34656 5357 ft 105 kts 307°
2026-04-26 17:35 34.86124 -89.35429 5201 ft 105 kts 307°
2026-04-26 17:35 34.86500 -89.36211 5045 ft 106 kts 307°
2026-04-26 17:35 34.86875 -89.36991 4894 ft 107 kts 308°
2026-04-26 17:36 34.87254 -89.37781 4747 ft 108 kts 308°
2026-04-26 17:36 34.87641 -89.38587 4587 ft 110 kts 308°
2026-04-26 17:36 34.88030 -89.39397 4438 ft 110 kts 309°
2026-04-26 17:36 34.88438 -89.40205 4285 ft 112 kts 306°
2026-04-26 17:37 34.88810 -89.41085 4132 ft 114 kts 304°
2026-04-26 17:37 34.89171 -89.41949 3982 ft 115 kts 303°
2026-04-26 17:37 34.89504 -89.42856 3884 ft 115 kts 288°
2026-04-26 17:38 34.90075 -89.44634 3855 ft 116 kts 308°
2026-04-26 17:38 34.90553 -89.45515 3908 ft 129 kts 311°
2026-04-26 17:38 34.91102 -89.46428 3988 ft 140 kts 308°
2026-04-26 17:38 34.91795 -89.47324 4100 ft 145 kts 310°
2026-04-26 17:39 34.92495 -89.48217 4234 ft 146 kts 319°
2026-04-26 17:39 34.93117 -89.49213 4382 ft 146 kts 311°
2026-04-26 17:39 34.93694 -89.50232 4529 ft 145 kts 311°
2026-04-26 17:39 34.94268 -89.51255 4673 ft 143 kts 311°
2026-04-26 17:40 34.94832 -89.52259 4810 ft 142 kts 311°
2026-04-26 17:40 34.95022 -89.52602 4857 ft 141 kts 311°
2026-04-26 17:40 34.95928 -89.54256 5072 ft 136 kts 310°
2026-04-26 17:40 34.96410 -89.55265 5188 ft 135 kts 307°
2026-04-26 17:41 34.96866 -89.56265 5301 ft 133 kts 307°
2026-04-26 17:41 34.97327 -89.57272 5380 ft 134 kts 307°
2026-04-26 17:41 34.97780 -89.58268 5495 ft 133 kts 307°
2026-04-26 17:41 34.98223 -89.59248 5599 ft 132 kts 307°
2026-04-26 17:42 34.98671 -89.60238 5710 ft 131 kts 307°
2026-04-26 17:42 34.99119 -89.61228 5631 ft 142 kts 307°
2026-04-26 17:42 34.99624 -89.62186 5501 ft 124 kts 298°
2026-04-26 17:42 35.00156 -89.63025 5108 ft 129 kts 307°
2026-04-26 17:43 35.00727 -89.63862 4611 ft 132 kts 304°
2026-04-26 17:43 35.01222 -89.64819 3977 ft 139 kts 296°
2026-04-26 17:43 35.01603 -89.65884 3323 ft 141 kts 289°
2026-04-26 17:43 35.01859 -89.67017 2678 ft 137 kts 279°
2026-04-26 17:44 35.02023 -89.68088 2415 ft 122 kts 278°
2026-04-26 17:44 35.02142 -89.69155 2277 ft 133 kts 274°
2026-04-26 17:44 35.02271 -89.70311 2132 ft 142 kts 277°
2026-04-26 17:44 35.02436 -89.71514 1989 ft 147 kts 278°
2026-04-26 17:45 35.02629 -89.72728 1952 ft 143 kts 280°
2026-04-26 17:45 35.02962 -89.73853 1955 ft 139 kts 294°
2026-04-26 17:45 35.03514 -89.74816 1954 ft 139 kts 308°
2026-04-26 17:45 35.04213 -89.75672 1957 ft 142 kts 311°
2026-04-26 17:46 35.04932 -89.76522 1957 ft 145 kts 311°
2026-04-26 17:46 35.05675 -89.77399 1956 ft 147 kts 312°
2026-04-26 17:46 35.06386 -89.78294 1918 ft 145 kts 300°
2026-04-26 17:46 35.06591 -89.79384 1832 ft 120 kts 254°
2026-04-26 17:47 35.06172 -89.80120 1748 ft 100 kts 207°
2026-04-26 17:47 35.05956 -89.80221 1721 ft 97 kts 191°
2026-04-26 17:47 35.04908 -89.79771 1581 ft 101 kts 152°
2026-04-26 17:47 35.04298 -89.79324 1478 ft 103 kts 152°
2026-04-26 17:48 35.03667 -89.78876 1366 ft 105 kts 155°
2026-04-26 17:48 35.02945 -89.78693 1243 ft 106 kts 182°
2026-04-26 17:48 35.02227 -89.78745 1115 ft 108 kts 180°
2026-04-26 17:48 35.01449 -89.78716 970 ft 110 kts 179°
2026-04-26 17:49 35.00673 -89.78715 823 ft 111 kts 180°
2026-04-26 17:49 34.99940 -89.78709 719 ft 89 kts 180°
2026-04-26 17:49 34.99353 -89.78700 551 ft 81 kts 178°
2026-04-26 17:49 34.98801 -89.78693 424 ft 74 kts 179°
2026-04-26 17:50 34.98349 -89.78687 399 ft 52 kts 178°
2026-04-26 17:50 34.98021 -89.78685 399 ft 40 kts 180°
2026-04-26 17:50 34.97879 -89.78701 397 ft 11 kts 243°
2026-04-26 17:50 34.97876 -89.78774 397 ft 0 kts 270°
2026-04-26 17:51 34.97876 -89.78778 397 ft 3 kts 271°
2026-04-26 17:51 34.97878 -89.78826 398 ft 12 kts 271°
2026-04-26 17:51 34.97909 -89.78919 399 ft 13 kts 348°
2026-04-26 17:51 34.98058 -89.78925 399 ft 14 kts 351°
2026-04-26 17:52 34.98082 -89.78951 400 ft 0 kts 274°